Hourly Data Report for May 09, 2004

SHERBROOKE A
QUEBEC

45°26'00.000" N
71°41'00.000" W
241.40 m
7028124
71610
YSC

Download Data

Hourly Data (May 2004)
Hourly Data Report for May 9, 2004
TIME
LST
Temp Definition
°C
Dew Point Definition
°C
Rel Hum Definition
%
Precip. Amount Definition
mm

Wind Dir Definition
10's deg

Wind Spd Definition
km/h
Visibility Definition
km
Stn Press Definition
kPa
Hmdx Definition


Wind Chill Definition


Weather Definition


00:00 3.6 -1.2 71     0 15.0 99.21      
01:00 3.7 -1.2 70   12 4 15.0 99.13      
02:00 4.3 -0.3 72   1 4 15.0 99.10      
03:00 4.4 -0.8 69     0 15.0 99.05      
04:00 5.1 0.4 72     0 15.0 99.03      
05:00 5.0 0.7 74     0 15.0 99.05      
06:00 6.6 1.9 72   20 6 15.0 99.09      
07:00 8.6 3.0 68   24 6 24.1 99.06     Cloudy
08:00 9.7 2.9 63   25 6 24.1 99.05     Mostly Cloudy
09:00 11.1 3.4 59   27 17 24.1 99.07     Cloudy
10:00 11.9 4.5 60   27 13 24.1 99.04     Mostly Cloudy
11:00 13.0 4.6 57   27 9 24.1 99.00     Mostly Cloudy
12:00 15.0 4.4 49   25 11 24.1 98.97     Mainly Clear
13:00 17.3 4.5 43   28 22 24.1 98.94     Clear
14:00 17.8 1.9 34   32 24 24.1 98.89     Mainly Clear
15:00 18.5 2.4 34   29 22 24.1 98.87     Mainly Clear
16:00 17.6 0.4 31   32 9 24.1 98.87     Mainly Clear
17:00 17.7 0.3 31   31 13 15.0 98.90      
18:00 16.9 1.0 34   28 9 15.0 98.96      
19:00 13.9 0.6 40   28 4 15.0 98.98      
20:00 9.4 1.8 59   19 6 15.0 99.04      
21:00 10.4 -0.1 48   6 6 15.0 99.11      
22:00 9.1 -3.0 42   8 6 15.0 99.18      
23:00 8.2 -5.2 38   6 9 15.0 99.26      

Notes on Data Quality.

Legend

  • E = Estimated
  • M = Missing
  • NA = Not Available*
  • [empty] = Indicates an unobserved value
Date modified: